Flood From: 21-02-2018 18:00 Until: 22-02-2018 16:00 warning for: Flood Level: Yellow info button

Although rather usual in this region, locally or potentially dangerous phenomena are expected. (such as local winds, summer thunderstorms, rising streams or high waves) Be aware and pay attention to the latest weather updates, especially if you carry out activities exposed to weather or close to a stream or shoreline. 


Meteo18 Weather Cam more information Meteo18 Weather Cam


Thunder radar more information blitzortung!


Rain radar more information rain snow radar


Visit our other weather sites:

Template documentation
and downloads

And another site



Weather Underground History page Text

Daily Summary for July 26, 2016 Units:  Metric    English   Both
« Previous Day
Next Day »
Daily Weekly Monthly Yearly Custom
  High: Low: Average:
Temperature: -17.8 °C -8.2 °C -5.6 °C
Dew Point: -17.8 °C -10.9 °C -9.7 °C
Humidity: Humidity % 46 % 64 %
Wind Speed: 0 km/h 0 km/h 10.1 km/h
Wind Gust: 0 km/h - -
Wind:- - WSW
Pressure: 0 hPa 34520.3 hPa -
Precipitation: 0 mm    
Historical Graphs
 
 
Tabular Data for July 26, 2016
Time Temperature Dew Point Pressure Wind Wind Speed Wind Gust Humidity Rainfall Rate (Hourly)
-17.8 °C -17.8 °C 0 hPa Calm     Humidity % 0 mm
00:02 -5.6 °C -7.9 °C 34533.8 hPa NNW 5.1 km/h 15.6 km/h 77 % 0 mm
00:07 -5.7 °C -7.9 °C 34533.8 hPa North 5.1 km/h 12.9 km/h 78 % 0 mm
00:12 -5.7 °C -7.8 °C 34533.8 hPa North 7.7 km/h 12.9 km/h 79 % 0 mm
00:17 -5.7 °C -7.8 °C 34533.8 hPa North 7.7 km/h 15.6 km/h 79 % 0 mm
00:22 -5.7 °C -7.8 °C 34533.8 hPa NNW 5.1 km/h 15.6 km/h 79 % 0 mm
00:27 -5.7 °C -7.8 °C 34533.8 hPa North 5.1 km/h 15.6 km/h 79 % 0 mm
00:32 -5.7 °C -7.8 °C 34533.8 hPa NW 5.1 km/h 15.6 km/h 79 % 0 mm
00:37 -5.7 °C -7.8 °C 34544 hPa NNW 7.7 km/h 15.6 km/h 79 % 0 mm
00:47 -5.7 °C -7.8 °C 34533.8 hPa NW 5.1 km/h 18.2 km/h 79 % 0 mm
00:52 -5.7 °C -7.7 °C 34533.8 hPa NW 12.9 km/h 18.2 km/h 80 % 0 mm
00:57 -5.7 °C -7.7 °C 34533.8 hPa NW 7.7 km/h 20.8 km/h 80 % 0 mm
01:02 -5.7 °C -7.7 °C 34533.8 hPa NNW 10.3 km/h 20.8 km/h 80 % 0 mm
01:07 -5.7 °C -7.7 °C 34533.8 hPa NNE 12.9 km/h 23.3 km/h 80 % 0 mm
01:12 -5.8 °C -7.8 °C 34533.8 hPa NNW 5.1 km/h 23.3 km/h 80 % 0 mm
01:17 -5.8 °C -7.8 °C 34533.8 hPa North 12.9 km/h 25.9 km/h 80 % 0 mm
01:22 -5.9 °C -7.8 °C 34533.8 hPa NNW 10.3 km/h 25.9 km/h 81 % 0 mm
01:27 -5.9 °C -7.8 °C 34533.8 hPa NNW 12.9 km/h 25.9 km/h 81 % 0 mm
01:32 -5.9 °C -7.8 °C 34533.8 hPa NW 7.7 km/h 25.9 km/h 81 % 0 mm
01:37 -5.9 °C -7.8 °C 34533.8 hPa NNW 5.1 km/h 25.9 km/h 81 % 0 mm
01:42 -6 °C -7.9 °C 34533.8 hPa NNW 7.7 km/h 25.9 km/h 81 % 0 mm
01:52 -6 °C -7.9 °C 34533.8 hPa North 7.7 km/h 25.9 km/h 81 % 0 mm
01:57 -6 °C -7.9 °C 34533.8 hPa WNW 5.1 km/h 20.8 km/h 81 % 0 mm
02:02 -6.1 °C -7.9 °C 34533.8 hPa North 2.6 km/h 20.8 km/h 81 % 0 mm
02:07 -6.1 °C -7.9 °C 34533.8 hPa NNW 5.1 km/h 20.8 km/h 81 % 0 mm
02:12 -6.1 °C -7.9 °C 34533.8 hPa NW 15.6 km/h 20.8 km/h 81 % 0 mm
02:17 -6.1 °C -7.9 °C 34533.8 hPa NNW 15.6 km/h 18.2 km/h 81 % 0 mm
02:22 -6.1 °C -7.9 °C 34533.8 hPa NNW 12.9 km/h 18.2 km/h 81 % 0 mm
02:27 -6.1 °C -7.9 °C 34533.8 hPa North 15.6 km/h 25.9 km/h 81 % 0 mm
02:32 -6.1 °C -8 °C 34533.8 hPa NW 18.2 km/h 25.9 km/h 81 % 0 mm
02:37 -6.2 °C -8.1 °C 34533.8 hPa NW 7.7 km/h 28.5 km/h 81 % 0 mm
02:42 -6.2 °C -8.1 °C 34533.8 hPa NW 12.9 km/h 28.5 km/h 81 % 0 mm
02:47 -6.2 °C -8.1 °C 34533.8 hPa North 12.9 km/h 28.5 km/h 81 % 0 mm
02:52 -6.2 °C -8.1 °C 34533.8 hPa North 18.2 km/h 28.5 km/h 81 % 0 mm
02:57 -6.3 °C -8.2 °C 34533.8 hPa NNW 18.2 km/h 28.5 km/h 81 % 0 mm
03:02 -6.3 °C -8.2 °C 34533.8 hPa NNW 10.3 km/h 28.5 km/h 81 % 0 mm
03:07 -6.3 °C -8.2 °C 34533.8 hPa NNE 18.2 km/h 25.9 km/h 81 % 0 mm
03:12 -6.3 °C -8.2 °C 34533.8 hPa North 10.3 km/h 25.9 km/h 81 % 0 mm
03:17 -6.3 °C -8.2 °C 34533.8 hPa NNE 10.3 km/h 25.9 km/h 81 % 0 mm
03:22 -6.3 °C -8.2 °C 34533.8 hPa WNW 10.3 km/h 25.9 km/h 81 % 0 mm
03:32 -6.4 °C -8.3 °C 34533.8 hPa NW 18.2 km/h 25.9 km/h 81 % 0 mm
03:37 -6.4 °C -8.3 °C 34533.8 hPa NNW 18.2 km/h 31.1 km/h 81 % 0 mm
03:42 -6.5 °C -8.4 °C 34533.8 hPa NNW 12.9 km/h 31.1 km/h 81 % 0 mm
03:47 -6.6 °C -8.3 °C 34533.8 hPa NNW 12.9 km/h 31.1 km/h 82 % 0 mm
03:52 -6.6 °C -8.3 °C 34533.8 hPa NNW 18.2 km/h 31.1 km/h 82 % 0 mm
03:57 -6.6 °C -8.4 °C 34533.8 hPa NNW 18.2 km/h 23.3 km/h 82 % 0 mm
04:02 -6.6 °C -8.4 °C 34533.8 hPa NW 15.6 km/h 23.3 km/h 82 % 0 mm
04:07 -6.7 °C -8.4 °C 34533.8 hPa NNW 10.3 km/h 28.5 km/h 82 % 0 mm
04:12 -6.7 °C -8.5 °C 34533.8 hPa NNW 12.9 km/h 28.5 km/h 82 % 0 mm
04:17 -6.8 °C -8.4 °C 34533.8 hPa NNW 18.2 km/h 31.1 km/h 83 % 0 mm
04:22 -6.8 °C -8.5 °C 34533.8 hPa North 10.3 km/h 31.1 km/h 83 % 0 mm
04:27 -6.9 °C -8.6 °C 34533.8 hPa NW 15.6 km/h 31.1 km/h 83 % 0 mm
04:32 -7 °C -8.6 °C 34533.8 hPa NNW 12.9 km/h 31.1 km/h 84 % 0 mm
04:37 -7.1 °C -8.5 °C 34533.8 hPa NNW 10.3 km/h 20.8 km/h 85 % 0 mm
04:42 -7.1 °C -8.5 °C 34533.8 hPa NNW 7.7 km/h 20.8 km/h 85 % 0 mm
04:47 -7.1 °C -8.6 °C 34533.8 hPa NW 10.3 km/h 23.3 km/h 85 % 0 mm
04:52 -7.1 °C -8.6 °C 34533.8 hPa NW 15.6 km/h 23.3 km/h 85 % 0 mm
05:02 -7.2 °C -8.7 °C 34533.8 hPa NNE 18.2 km/h 23.3 km/h 84 % 0 mm
05:12 -7.3 °C -8.9 °C 34533.8 hPa NE 18.2 km/h 31.1 km/h 83 % 0 mm
05:22 -7.3 °C -8.9 °C 34544 hPa NNW 7.7 km/h 31.1 km/h 84 % 0 mm
05:32 -7.4 °C -9 °C 34533.8 hPa North 20.8 km/h 28.5 km/h 84 % 0 mm
05:42 -7.6 °C -9.1 °C 34533.8 hPa NNE 7.7 km/h 31.1 km/h 84 % 0 mm
05:47 -7.6 °C -9.2 °C 34544 hPa NNW 10.3 km/h 31.1 km/h 84 % 0 mm
05:52 -7.7 °C -9.2 °C 34544 hPa NNW 7.7 km/h 31.1 km/h 84 % 0 mm
05:57 -7.7 °C -9.2 °C 34544 hPa NNW 20.8 km/h 28.5 km/h 84 % 0 mm
06:02 -7.7 °C -9.2 °C 34544 hPa North 20.8 km/h 28.5 km/h 84 % 0 mm
06:07 -7.8 °C -9.4 °C 34544 hPa North 18.2 km/h 25.9 km/h 83 % 0 mm
06:13 -7.8 °C -9.4 °C 34544 hPa North 20.8 km/h 25.9 km/h 83 % 0 mm
06:22 -7.9 °C -9.5 °C 34544 hPa NNW 15.6 km/h 33.6 km/h 83 % 0 mm
06:32 -8 °C -9.6 °C 34554.1 hPa North 12.9 km/h 31.1 km/h 83 % 0 mm
06:42 -8 °C -9.6 °C 34554.1 hPa North 15.6 km/h 25.9 km/h 83 % 0 mm
06:52 -8 °C -9.7 °C 34554.1 hPa North 23.3 km/h 33.6 km/h 82 % 0 mm
07:02 -8.1 °C -9.8 °C 34554.1 hPa NNE 5.1 km/h 33.6 km/h 82 % 0 mm
07:12 -8.1 °C -9.8 °C 34554.1 hPa ENE 20.8 km/h 36.2 km/h 82 % 0 mm
07:17 -8.2 °C -10.1 °C 34554.1 hPa North 31.1 km/h 36.2 km/h 80 % 0 mm
07:22 -8.2 °C -10.1 °C 34567.7 hPa North 18.2 km/h 36.2 km/h 80 % 0 mm
07:32 -8.2 °C -10.2 °C 34567.7 hPa NW 18.2 km/h 41.4 km/h 79 % 0 mm
07:37 -8.1 °C -10.2 °C 34567.7 hPa NNW 5.1 km/h 31.1 km/h 79 % 0 mm
07:42 -8 °C -10.2 °C 34567.7 hPa ENE 10.3 km/h 31.1 km/h 78 % 0 mm
07:47 -8 °C -10.2 °C 34567.7 hPa NE 7.7 km/h 28.5 km/h 78 % 0 mm
07:57 -8.1 °C -10.3 °C 34577.8 hPa NE 5.1 km/h 31.1 km/h 78 % 0 mm
08:02 -8 °C -10.2 °C 34577.8 hPa WNW 5.1 km/h 31.1 km/h 78 % 0 mm
08:12 -7.8 °C -10.2 °C 34577.8 hPa NE 20.8 km/h 28.5 km/h 76 % 0 mm
08:17 -7.8 °C -10.2 °C 34591.4 hPa NNW 5.1 km/h 28.5 km/h 76 % 0 mm
08:22 -7.9 °C -10.3 °C 34591.4 hPa NE 20.8 km/h 28.5 km/h 76 % 0 mm
08:32 -8 °C -10.4 °C 34591.4 hPa NNE 10.3 km/h 28.5 km/h 76 % 0 mm
08:42 -7.9 °C -10.4 °C 34591.4 hPa NW 15.6 km/h 28.5 km/h 75 % 0 mm
08:52 -7.9 °C -10.4 °C 34591.4 hPa NNE 12.9 km/h 31.1 km/h 75 % 0 mm
08:57 -7.9 °C -10.4 °C 34591.4 hPa North 12.9 km/h 31.1 km/h 75 % 0 mm
09:07 -7.7 °C -10.3 °C 34591.4 hPa NE 2.6 km/h 31.1 km/h 74 % 0 mm
09:17 -7.4 °C -10.1 °C 34601.5 hPa North 15.6 km/h 28.5 km/h 73 % 0 mm
09:22 -7.3 °C -10.2 °C 34601.5 hPa NNW 12.9 km/h 28.5 km/h 72 % 0 mm
09:27 -7.2 °C -10.3 °C 34591.4 hPa NNE 5.1 km/h 28.5 km/h 70 % 0 mm
09:32 -7.1 °C -10.3 °C 34591.4 hPa NNW 15.6 km/h 28.5 km/h 69 % 0 mm
09:42 -6.9 °C -10.2 °C 34591.4 hPa NNE 20.8 km/h 28.5 km/h 69 % 0 mm
09:47 -6.8 °C -10.2 °C 34591.4 hPa NNW 15.6 km/h 23.3 km/h 68 % 0 mm
09:52 -6.8 °C -10.2 °C 34591.4 hPa NNE 12.9 km/h 23.3 km/h 68 % 0 mm
10:02 -6.7 °C -10.2 °C 34591.4 hPa NW 12.9 km/h 25.9 km/h 67 % 0 mm
10:12 -6.6 °C -10.3 °C 34591.4 hPa North 15.6 km/h 25.9 km/h 66 % 0 mm
10:17 -6.6 °C -10.3 °C 34591.4 hPa North 12.9 km/h 28.5 km/h 65 % 0 mm
10:27 -6.3 °C -10.2 °C 34591.4 hPa NNW 10.3 km/h 28.5 km/h 64 % 0 mm
10:37 -6.3 °C -10.2 °C 34591.4 hPa NNE 10.3 km/h 36.2 km/h 64 % 0 mm
10:42 -6.2 °C -10.2 °C 34591.4 hPa NE 15.6 km/h 36.2 km/h 63 % 0 mm
10:52 -5.9 °C -9.8 °C 34591.4 hPa NNE 10.3 km/h 36.2 km/h 64 % 0 mm
10:57 -5.9 °C -9.9 °C 34591.4 hPa ENE 7.7 km/h 28.5 km/h 64 % 0 mm
11:02 -5.8 °C -9.8 °C 34591.4 hPa NW 12.9 km/h 28.5 km/h 63 % 0 mm
11:07 -5.6 °C -9.8 °C 34591.4 hPa Calm   25.9 km/h 62 % 0 mm
11:12 -5.5 °C -9.9 °C 34591.4 hPa NE 5.1 km/h 25.9 km/h 61 % 0 mm
11:17 -5.5 °C -9.9 °C 34591.4 hPa NE 15.6 km/h 23.3 km/h 61 % 0 mm
11:22 -5.4 °C -9.8 °C 34591.4 hPa NW 7.7 km/h 23.3 km/h 61 % 0 mm
11:27 -5.3 °C -9.8 °C 34591.4 hPa NW 7.7 km/h 28.5 km/h 60 % 0 mm
11:32 -5.2 °C -9.8 °C 34591.4 hPa North 10.3 km/h 28.5 km/h 59 % 0 mm
11:37 -5.2 °C -9.9 °C 34591.4 hPa NW 7.7 km/h 23.3 km/h 59 % 0 mm
11:42 -5.1 °C -9.9 °C 34591.4 hPa WNW 5.1 km/h 23.3 km/h 58 % 0 mm
11:47 -5.1 °C -9.7 °C 34591.4 hPa WNW 5.1 km/h 25.9 km/h 59 % 0 mm
11:52 -5.1 °C -10.1 °C 34591.4 hPa WNW 7.7 km/h 25.9 km/h 57 % 0 mm
11:57 -4.9 °C -9.9 °C 34591.4 hPa WNW 10.3 km/h 25.9 km/h 57 % 0 mm
12:02 -5 °C -9.7 °C 34591.4 hPa WNW 23.3 km/h 25.9 km/h 59 % 0 mm
12:07 -5.1 °C -9.8 °C 34591.4 hPa North 12.9 km/h 28.5 km/h 59 % 0 mm
12:12 -4.9 °C -10.1 °C 34591.4 hPa ENE 2.6 km/h 28.5 km/h 56 % 0 mm
12:17 -4.8 °C -10 °C 34591.4 hPa North 20.8 km/h 28.5 km/h 56 % 0 mm
12:22 -4.7 °C -9.7 °C 34591.4 hPa NNW 7.7 km/h 18.2 km/h 57 % 0 mm
12:27 -4.6 °C -10.1 °C 34591.4 hPa NW 23.3 km/h 23.3 km/h 54 % 0 mm
12:32 -4.6 °C -10.1 °C 34591.4 hPa NNW 15.6 km/h 36.2 km/h 54 % 0 mm
12:37 -4.7 °C -10 °C 34591.4 hPa NNE 2.6 km/h 36.2 km/h 55 % 0 mm
12:42 -4.5 °C -10 °C 34591.4 hPa NW 10.3 km/h 36.2 km/h 54 % 0 mm
12:47 -4.4 °C -10.1 °C 34591.4 hPa NE 12.9 km/h 28.5 km/h 53 % 0 mm
12:52 -4.4 °C -10.2 °C 34591.4 hPa NNW 15.6 km/h 28.5 km/h 52 % 0 mm
12:57 -4.5 °C -10 °C 34591.4 hPa NNW 18.2 km/h 31.1 km/h 54 % 0 mm
13:02 -4.6 °C -10.2 °C 34591.4 hPa North 23.3 km/h 31.1 km/h 53 % 0 mm
13:07 -4.6 °C -10.1 °C 34591.4 hPa NW 5.1 km/h 28.5 km/h 54 % 0 mm
13:12 -4.3 °C -9.8 °C 34591.4 hPa NW 12.9 km/h 28.5 km/h 54 % 0 mm
13:17 -4.5 °C -10.3 °C 34591.4 hPa NW 5.1 km/h 28.5 km/h 52 % 0 mm
13:22 -4.5 °C -10 °C 34591.4 hPa NNW 15.6 km/h 28.5 km/h 54 % 0 mm
13:27 -4.2 °C -10 °C 34591.4 hPa NNW 15.6 km/h 28.5 km/h 52 % 0 mm
13:32 -4.2 °C -10.1 °C 34591.4 hPa NE 10.3 km/h 28.5 km/h 52 % 0 mm
13:37 -4.3 °C -10.2 °C 34591.4 hPa NNE 12.9 km/h 31.1 km/h 52 % 0 mm
13:42 -4.2 °C -10.4 °C 34591.4 hPa WSW 10.3 km/h 31.1 km/h 50 % 0 mm
13:47 -4.2 °C -9.9 °C 34591.4 hPa NE 5.1 km/h 25.9 km/h 53 % 0 mm
13:52 -4.1 °C -9.9 °C 34591.4 hPa West 7.7 km/h 25.9 km/h 52 % 0 mm
13:57 -4.2 °C -10.2 °C 34591.4 hPa SW 7.7 km/h 33.6 km/h 51 % 0 mm
14:07 -4.2 °C -10.2 °C 34577.8 hPa WNW 2.6 km/h 28.5 km/h 51 % 0 mm
14:12 -4.1 °C -9.9 °C 34577.8 hPa WNW 15.6 km/h 28.5 km/h 52 % 0 mm
14:17 -4.1 °C -9.9 °C 34567.7 hPa WSW 20.8 km/h 23.3 km/h 52 % 0 mm
14:22 -4 °C -10 °C 34577.8 hPa NW 18.2 km/h 23.3 km/h 51 % 0 mm
14:27 -4.1 °C -10.1 °C 34567.7 hPa WNW 10.3 km/h 28.5 km/h 51 % 0 mm
14:32 -4.1 °C -10.2 °C 34567.7 hPa West 15.6 km/h 28.5 km/h 50 % 0 mm
14:37 -4.1 °C -10.2 °C 34567.7 hPa WNW 2.6 km/h 28.5 km/h 50 % 0 mm
14:42 -3.9 °C -10.1 °C 34567.7 hPa WNW 10.3 km/h 28.5 km/h 50 % 0 mm
14:47 -4.1 °C -10.2 °C 34567.7 hPa West 10.3 km/h 28.5 km/h 50 % 0 mm
14:52 -4.1 °C -10.2 °C 34567.7 hPa WNW 10.3 km/h 28.5 km/h 50 % 0 mm
14:57 -3.8 °C -10 °C 34567.7 hPa WNW 15.6 km/h 25.9 km/h 50 % 0 mm
15:02 -3.7 °C -9.9 °C 34567.7 hPa WNW 10.3 km/h 25.9 km/h 50 % 0 mm
15:07 -3.8 °C -10.2 °C 34567.7 hPa NW 15.6 km/h 23.3 km/h 49 % 0 mm
15:12 -3.9 °C -9.9 °C 34567.7 hPa West 2.6 km/h 23.3 km/h 51 % 0 mm
15:17 -3.8 °C -10.1 °C 34567.7 hPa NW 7.7 km/h 25.9 km/h 50 % 0 mm
15:22 -3.9 °C -10.3 °C 34567.7 hPa West 10.3 km/h 25.9 km/h 49 % 0 mm
15:32 -3.8 °C -10.1 °C 34567.7 hPa West 12.9 km/h 25.9 km/h 50 % 0 mm
15:37 -4.1 °C -10.1 °C 34554.1 hPa North 7.7 km/h 25.9 km/h 51 % 0 mm
15:42 -3.8 °C -9.8 °C 34554.1 hPa NE 7.7 km/h 25.9 km/h 51 % 0 mm
15:47 -3.6 °C -10 °C 34554.1 hPa WNW 15.6 km/h 28.5 km/h 49 % 0 mm
15:52 -3.7 °C -10.2 °C 34554.1 hPa WNW 12.9 km/h 28.5 km/h 48 % 0 mm
16:02 -3.6 °C -10.2 °C 34554.1 hPa NE 5.1 km/h 28.5 km/h 48 % 0 mm
16:07 -3.5 °C -10.1 °C 34554.1 hPa NNW 12.9 km/h 23.3 km/h 48 % 0 mm
16:12 -3.7 °C -10.1 °C 34554.1 hPa WNW 10.3 km/h 23.3 km/h 49 % 0 mm
16:17 -3.7 °C -10.1 °C 34554.1 hPa WNW 23.3 km/h 33.6 km/h 49 % 0 mm
16:22 -3.7 °C -10.1 °C 34554.1 hPa NW 12.9 km/h 33.6 km/h 49 % 0 mm
16:27 -3.7 °C -10.1 °C 34554.1 hPa WNW 20.8 km/h 33.6 km/h 49 % 0 mm
16:32 -3.8 °C -10.2 °C 34544 hPa WNW 10.3 km/h 33.6 km/h 49 % 0 mm
16:37 -3.9 °C -10.3 °C 34544 hPa Calm   23.3 km/h 49 % 0 mm
16:47 -3.7 °C -10.3 °C 34544 hPa SW 10.3 km/h 25.9 km/h 48 % 0 mm
16:52 -3.7 °C -10.3 °C 34544 hPa West 10.3 km/h 25.9 km/h 48 % 0 mm
16:57 -3.8 °C -10.3 °C 34544 hPa North 7.7 km/h 28.5 km/h 48 % 0 mm
17:02 -3.7 °C -10.3 °C 34544 hPa West 10.3 km/h 28.5 km/h 48 % 0 mm
17:07 -3.8 °C -10.3 °C 34533.8 hPa West 5.1 km/h 31.1 km/h 48 % 0 mm
17:17 -3.6 °C -10.2 °C 34533.8 hPa NE 7.7 km/h 31.1 km/h 48 % 0 mm
17:22 -3.6 °C -10.1 °C 34533.8 hPa WNW 25.9 km/h 31.1 km/h 48 % 0 mm
17:27 -3.5 °C -10.1 °C 34533.8 hPa Calm   28.5 km/h 48 % 0 mm
17:32 -3.6 °C -10.1 °C 34533.8 hPa WNW 20.8 km/h 28.5 km/h 48 % 0 mm
17:42 -3.7 °C -10.2 °C 34533.8 hPa WNW 15.6 km/h 28.5 km/h 48 % 0 mm
17:47 -3.7 °C -10.2 °C 34533.8 hPa WNW 15.6 km/h 36.2 km/h 48 % 0 mm
17:52 -3.6 °C -10.3 °C 34533.8 hPa WNW 10.3 km/h 36.2 km/h 47 % 0 mm
17:57 -3.6 °C -10.3 °C 34533.8 hPa WNW 12.9 km/h 20.8 km/h 47 % 0 mm
18:02 -3.6 °C -10.5 °C 34533.8 hPa WNW 18.2 km/h 20.8 km/h 46 % 0 mm
18:07 -3.6 °C -10.5 °C 34533.8 hPa WSW 7.7 km/h 23.3 km/h 46 % 0 mm
18:12 -3.6 °C -10.3 °C 34533.8 hPa NW 12.9 km/h 23.3 km/h 47 % 0 mm
18:17 -3.7 °C -10.2 °C 34533.8 hPa WNW 15.6 km/h 25.9 km/h 48 % 0 mm
18:22 -3.7 °C -10.4 °C 34533.8 hPa NNW 12.9 km/h 25.9 km/h 47 % 0 mm
18:27 -3.8 °C -10.3 °C 34533.8 hPa WNW 10.3 km/h 25.9 km/h 48 % 0 mm
18:32 -3.7 °C -10.2 °C 34533.8 hPa WNW 12.9 km/h 31.1 km/h 48 % 0 mm
18:42 -3.6 °C -10.3 °C 34533.8 hPa West 2.6 km/h 20.8 km/h 47 % 0 mm
18:47 -3.5 °C -10.4 °C 34533.8 hPa WSW 5.1 km/h 25.9 km/h 46 % 0 mm
18:52 -3.6 °C -10.3 °C 34533.8 hPa North 15.6 km/h 25.9 km/h 47 % 0 mm
18:57 -3.6 °C -10.3 °C 34533.8 hPa WNW 15.6 km/h 25.9 km/h 47 % 0 mm
19:02 -3.7 °C -10.4 °C 34533.8 hPa WNW 7.7 km/h 25.9 km/h 47 % 0 mm
19:12 -3.8 °C -10.6 °C 34533.8 hPa NNW 7.7 km/h 25.9 km/h 47 % 0 mm
19:17 -3.9 °C -10.4 °C 34533.8 hPa WNW 7.7 km/h 25.9 km/h 48 % 0 mm
19:22 -3.8 °C -10.3 °C 34520.3 hPa West 12.9 km/h 25.9 km/h 48 % 0 mm
19:27 -3.8 °C -10.6 °C 34533.8 hPa WNW 2.6 km/h 18.2 km/h 47 % 0 mm
19:32 -3.9 °C -10.6 °C 34533.8 hPa NW 10.3 km/h 18.2 km/h 47 % 0 mm
19:37 -3.8 °C -10.5 °C 34520.3 hPa WNW 12.9 km/h 20.8 km/h 47 % 0 mm
19:42 -3.8 °C -10.7 °C 34520.3 hPa WNW 7.7 km/h 20.8 km/h 46 % 0 mm
19:52 -4.1 °C -10.6 °C 34520.3 hPa NNW 7.7 km/h 23.3 km/h 48 % 0 mm
19:57 -4.3 °C -10.8 °C 34533.8 hPa WNW 7.7 km/h 23.3 km/h 48 % 0 mm
20:02 -4.4 °C -10.7 °C 34533.8 hPa West 10.3 km/h 23.3 km/h 49 % 0 mm
20:07 -4.4 °C -10.6 °C 34533.8 hPa WNW 5.1 km/h 20.8 km/h 50 % 0 mm
20:12 -4.4 °C -10.6 °C 34533.8 hPa West 5.1 km/h 20.8 km/h 50 % 0 mm
20:17 -4.3 °C -10.7 °C 34533.8 hPa NNW 5.1 km/h 15.6 km/h 49 % 0 mm
20:22 -4.4 °C -10.7 °C 34533.8 hPa Calm   15.6 km/h 49 % 0 mm
20:27 -4.5 °C -10.8 °C 34533.8 hPa WNW 10.3 km/h 18.2 km/h 49 % 0 mm
20:32 -4.6 °C -10.9 °C 34533.8 hPa West 7.7 km/h 18.2 km/h 49 % 0 mm
20:37 -4.5 °C -10.7 °C 34533.8 hPa NW 5.1 km/h 20.8 km/h 50 % 0 mm
20:42 -4.6 °C -10.7 °C 34533.8 hPa NW 15.6 km/h 20.8 km/h 50 % 0 mm
20:47 -4.5 °C -10.7 °C 34533.8 hPa NNW 5.1 km/h 18.2 km/h 50 % 0 mm
20:52 -4.4 °C -10.6 °C 34533.8 hPa Calm   18.2 km/h 50 % 0 mm
21:02 -4.6 °C -10.5 °C 34533.8 hPa WNW 2.6 km/h 18.2 km/h 51 % 0 mm
21:07 -4.6 °C -10.4 °C 34533.8 hPa WNW 2.6 km/h 12.9 km/h 52 % 0 mm
21:12 -4.8 °C -10.6 °C 34533.8 hPa WNW 2.6 km/h 12.9 km/h 52 % 0 mm
21:17 -4.9 °C -10.5 °C 34533.8 hPa Calm   10.3 km/h 53 % 0 mm
21:22 -5.1 °C -10.6 °C 34533.8 hPa Calm   10.3 km/h 54 % 0 mm
21:27 -5.2 °C -10.5 °C 34533.8 hPa Calm   7.7 km/h 55 % 0 mm
21:32 -5.4 °C -10.5 °C 34533.8 hPa Calm   7.7 km/h 56 % 0 mm
21:37 -5.5 °C -10.4 °C 34533.8 hPa Calm     57 % 0 mm
21:42 -5.7 °C -10.4 °C 34533.8 hPa Calm     58 % 0 mm
21:52 -5.8 °C -10.5 °C 34544 hPa Calm     59 % 0 mm
21:57 -5.9 °C -10.5 °C 34533.8 hPa Calm     59 % 0 mm
22:02 -6 °C -10.5 °C 34533.8 hPa Calm     60 % 0 mm
22:07 -6.1 °C -10.4 °C 34544 hPa Calm     61 % 0 mm
22:12 -6.2 °C -10.5 °C 34544 hPa Calm     61 % 0 mm
22:17 -6.3 °C -10.4 °C 34544 hPa NNW 5.1 km/h 5.1 km/h 62 % 0 mm
22:22 -6.3 °C -10.4 °C 34544 hPa NNW 2.6 km/h 5.1 km/h 63 % 0 mm
22:27 -6.4 °C -10.5 °C 34544 hPa NNW 5.1 km/h 7.7 km/h 63 % 0 mm
22:32 -6.5 °C -10.4 °C 34544 hPa NNW 5.1 km/h 7.7 km/h 64 % 0 mm
22:37 -6.6 °C -10.4 °C 34544 hPa NNW 5.1 km/h 7.7 km/h 65 % 0 mm
22:42 -6.7 °C -10.4 °C 34544 hPa NNW 2.6 km/h 7.7 km/h 65 % 0 mm
22:47 -6.8 °C -10.4 °C 34544 hPa NW 2.6 km/h 10.3 km/h 66 % 0 mm
22:52 -6.8 °C -10.3 °C 34544 hPa NNW 5.1 km/h 10.3 km/h 67 % 0 mm
22:57 -6.9 °C -10.3 °C 34554.1 hPa NNW 7.7 km/h 10.3 km/h 68 % 0 mm
23:02 -6.9 °C -10.3 °C 34554.1 hPa NNW 5.1 km/h 10.3 km/h 68 % 0 mm
23:07 -6.9 °C -10.3 °C 34544 hPa NW 7.7 km/h 10.3 km/h 68 % 0 mm
23:12 -7 °C -10.2 °C 34544 hPa NNW 5.1 km/h 10.3 km/h 69 % 0 mm
23:17 -7.1 °C -10.3 °C 34544 hPa NW 2.6 km/h 7.7 km/h 69 % 0 mm
23:22 -7.1 °C -10.3 °C 34544 hPa NNW 5.1 km/h 7.7 km/h 69 % 0 mm
23:27 -7.1 °C -10.3 °C 34544 hPa NNW 2.6 km/h 7.7 km/h 69 % 0 mm
23:32 -7.1 °C -10.3 °C 34544 hPa NW 5.1 km/h 7.7 km/h 69 % 0 mm
23:37 -7.2 °C -10.4 °C 34544 hPa NNW 2.6 km/h 7.7 km/h 69 % 0 mm
23:42 -7.2 °C -10.3 °C 34544 hPa NNW 2.6 km/h 7.7 km/h 70 % 0 mm
23:47 -7.3 °C -10.4 °C 34544 hPa Calm   7.7 km/h 70 % 0 mm
23:52 -7.6 °C -10.6 °C 34544 hPa NW 2.6 km/h 7.7 km/h 71 % 0 mm
23:57 -7.7 °C -10.5 °C 34544 hPa WNW 2.6 km/h 5.1 km/h 72 % 0 mm
Meteo18
Compliments of Weather Underground - 4 mb

Script developed by  Jim McMurry - jmcmurry@mwt.net Adapted for the template by  Wim van der Kuil - Leuven-Template.eu

You find our weather info also at:

European Weather Network

Weather Underground

Equipment we use:

Weather-station
Davis Vue

Weather-program
Meteobridge

Weather-server
Raspberry PI 2 B+

Provider
1 and 1

Davis Vue

Meteobridge

Raspberry PI 2 B+

1 and 1